Location: Moscow
(44.4414°N, 72.7154°W)
Time: 12:05:12
(UTC+00:00)

ISS - Pass Details

Date: 20 October 2024
Orbit: 407 x 418 km, 51.6° (Epoch: 13 November)

Event Time Altitude Azimuth Distance (km) Brightness Sun altitude
Exits shadow 09:02:30 29° 126° (SE) 776 -2.1 -23.9°
Drops below altitude 10° 09:05:05 10° 76° (ENE) 1,469 0.1 -23.5°
Sets 09:07:18 0° 66° (ENE) 2,332 1.3 -23.1°
